Weather History for Kirksville, MO

Change the Weather History Date:

Sunday, May 12, 2013

  Actual Average Record
Temperature  
Mean Temperature 47 °F 61 °F  
Max Temperature 61 °F 71 °F 92 °F (1956)
Min Temperature 32 °F 50 °F 32 °F (2013)
Degree Days  
Heating Degree Days 18 6  
Month to date heating degree days 146 86  
Since 1 July heating degree days 5992 5776  
Cooling Degree Days 0 1  
Month to date cooling degree days 0 11  
Year to date cooling degree days 10 18  
Moisture  
Dew Point 28 °F    
Average Humidity 56    
Maximum Humidity 85    
Minimum Humidity 27    
Precipitation  
Precipitation 0.00 in 0.15 in 2.73 in (2002)
Month to date precipitation 1.44 2.06  
Year to date precipitation 17.41 11.25  
Sea Level Pressure  
Sea Level Pressure 30.23 in    
Wind  
Wind Speed 6 mph (NW)    
Max Wind Speed 15 mph    
Max Gust Speed 21 mph    
Visibility 10 miles    
Events      
T = Trace of Precipitation, MM = Missing Value Source: NWS Daily Summary

Daily Weather History Graph

Daily Weather History Graph

Search for Another Location

Airport:

Trip Planner

Search our weather history database for the weather conditions in past years. The results will help you decide how hot, cold, wet, or windy it might be!

Date:

Astronomy

May. 12, 2013 Rise Set
Actual Time 5:57 AM CDT 8:16 PM CDT
Civil Twilight 5:26 AM CDT 8:46 PM CDT
Nautical Twilight 4:49 AM CDT 9:24 PM CDT
Astronomical Twilight 4:08 AM CDT 10:06 PM CDT
Moon 7:52 AM CDT (5/12) 10:43 PM CDT (5/12)
Length of Visible Light 15h 19m
Length of Day
14h 19m
Waxing Crescent, 7% of the Moon is Illuminated
May 12
Waxing Crescent
May 17
First Quarter
May 24
Full
May 31
Last Quarter
Jun 8
New

Hourly Weather History & Observations

Time (CDT) Temp. Windchill Dew Point Humidity Pressure Visibility Wind Dir Wind Speed Gust Speed Precip Events Conditions
12:55 AM 36.0 °F 33.3 °F 30.0 °F 79% 30.23 in 10.0 mi WNW 3.5 mph - N/A   Clear
1:55 AM 35.1 °F 31.0 °F 28.9 °F 78% 30.24 in 10.0 mi WNW 4.6 mph - N/A   Clear
2:55 AM 37.9 °F 32.7 °F 27.0 °F 65% 30.23 in 10.0 mi NW 6.9 mph - N/A   Clear
3:55 AM 37.0 °F 33.3 °F 26.1 °F 65% 30.24 in 10.0 mi WNW 4.6 mph - N/A   Clear
4:55 AM 33.1 °F 28.7 °F 26.1 °F 75% 30.24 in 10.0 mi WNW 4.6 mph - N/A   Clear
5:55 AM 35.1 °F 31.0 °F 26.1 °F 70% 30.25 in 10.0 mi NW 4.6 mph - N/A   Clear
6:55 AM 37.9 °F 33.5 °F 26.1 °F 62% 30.25 in 10.0 mi NW 5.8 mph - N/A   Clear
7:55 AM 44.1 °F 40.1 °F 28.0 °F 53% 30.27 in 10.0 mi NNW 6.9 mph - N/A   Clear
8:55 AM 48.0 °F - 28.0 °F 46% 30.29 in 10.0 mi NNW 5.8 mph - N/A   Clear
9:55 AM 51.1 °F - 26.1 °F 38% 30.29 in 10.0 mi NW 10.4 mph - N/A   Clear
10:55 AM 53.1 °F - 23.0 °F 31% 30.29 in 10.0 mi NW 12.7 mph 18.4 mph N/A   Clear
11:55 AM 55.9 °F - 27.0 °F 33% 30.28 in 10.0 mi WNW 9.2 mph - N/A   Clear
12:55 PM 55.9 °F - 25.0 °F 30% 30.27 in 10.0 mi NW 12.7 mph 20.7 mph N/A   Clear
1:55 PM 57.9 °F - 26.1 °F 30% 30.25 in 10.0 mi Variable 6.9 mph 17.3 mph N/A   Clear
2:55 PM 59.0 °F - 26.1 °F 28% 30.23 in 10.0 mi NW 9.2 mph 18.4 mph N/A   Clear
3:55 PM 60.1 °F - 27.0 °F 28% 30.20 in 10.0 mi NW 9.2 mph - N/A   Clear
4:55 PM 59.0 °F - 27.0 °F 29% 30.20 in 10.0 mi West 8.1 mph 18.4 mph N/A   Clear
5:55 PM 59.0 °F - 27.0 °F 29% 30.19 in 10.0 mi Variable 3.5 mph - N/A   Clear
6:55 PM 57.9 °F - 27.0 °F 31% 30.18 in 10.0 mi WNW 9.2 mph - N/A   Clear
7:55 PM 54.0 °F - 28.0 °F 37% 30.17 in 10.0 mi WNW 6.9 mph - N/A   Clear
8:55 PM 46.0 °F - 35.1 °F 66% 30.19 in 10.0 mi Calm Calm - N/A   Clear
9:55 PM 42.1 °F - 32.0 °F 67% 30.20 in 10.0 mi Calm Calm - N/A   Clear
10:55 PM 39.0 °F - 30.0 °F 70% 30.20 in 10.0 mi Calm Calm - N/A   Clear
11:55 PM 37.9 °F - 33.1 °F 83% 30.20 in 10.0 mi Calm Calm - N/A   Clear